STARLINK-1152, 45096

Orbit data source: Space-Track

STARLINK-1152, 45096 is a payload satellite owned by SpaceX/Seattle (US) in LEO that was launched on Wed, 29 Jan 2020 UTC via an FALCON 9 launch vehicle from the Air Force Eastern Test Range (AFETR). Payload-class satellites include a variety of spacecraft equipped with specific instruments for various scientific and technological missions. These include communications satellites like Starlink; space stations such as the ISS; scientific satellites like the Hubble; Earth observation satellites from companies like Planet Labs, Umbra, and HawkEye 360; GPS; miniature CubeSats for education and research; and military/defense satellites.

Loading next visibility...
Identifier
45096, 2020-006BE
Orbit
LEO
Country
Flag of USUS
Related business
Manufacturer
SpaceX/Seattle
Mission
Partially operational Commercial Communications
Bus & Motor
STARLINK, Unknown motor
Mass
260 kg wet, ~248 kg dry
Launch date (UTC)
2020-01-29 (6 years ago)
Launch vehicle
FALCON 9
Launch site
Air Force Eastern Test Range (AFETR)
Object type
Payload
Rocket body
Debris
Shape & HBR
Box + 1 Pan, 10.1 m
Radar Cross Section
13.562 m², Large (>1 m²)

Expand to show TLE details & history
Last TLE update: 12 hours ago

TLE from 12 hours ago
0 STARLINK-1152
1 45096U 20006BE  25310.68949546  .00085866  00000-0  33824-2 0  9999
2 45096  53.0502  60.2191 0004914 203.1126 156.9651 15.24872849318749
Epoch: 2025-11-06T16:32Z
TLE epoch observation values (Epoch: 2025-11-06T16:32:52.407Z)
Latitude
-0.00001°
Longitude
125.85653°
Altitude
495.16 km
Speed
7.617 km/s
True Right ascension
04h 00m 52s
True Declination
0° 00' 00"
Sunlit
Object was in full shadow at epoch
Visualization orbit readout
Latitude
Unknown
Longitude
Unknown
Altitude
Unknown
Speed
Unknown
Apparent Right ascension
Unknown
Apparent Declination
Unknown
Sunlit
N/A
Visualization observer readout
Local Sidereal Time
00:33:41
Azimuth
Unknown
Elevation
Unknown
Doppler factor
Unknown
Orbital elements
Apogee altitude
494.817 km
Perigee altitude
488.065 km
Semi-major axis
6,869.578 km
Eccentricity
0.00049
Inclination
53.0502°
RAAN
60.2191°
Arg. of periapsis
203.1126°
True anomaly
156.98712°
Mean anomaly
156.9651°
Eccentric anomaly
156.97611°
Mean motion
3.81196 °/min
Orbital period
94.44 mins
BSTAR
0.0033824
Loading maneuver chart data...
Computing Atmospheric mass density...
Loading historical data...
Loading historical data...
Loading historical data...
Loading historical data...
Loading historical data...
Loading historical data...
Loading historical data...

Documentation

Showing up to 5 results
|